Location: Cuzcurrita-R�o Tir�n
(42.5415°N, 2.9642°W)
Time: 21:10:38
(UTC+00:00)

Okean-O - Pass Details

Date: 17 January 2021
Orbit: 638 x 641 km, 98.2° (Epoch: 02 March)

Event Time Altitude Azimuth Distance (km) Brightness Sun altitude
Rises 18:32:20 0° 155° (SSE) 2,932 5.9 -15.6°
Reaches altitude 10° 18:34:33 10° 151° (SSE) 2,028 5.0 -16.0°
Maximum altitude 18:38:53 57° 73° (ENE) 755 2.6 -16.7°
Drops below altitude 10° 18:43:15 10° 355° (N) 2,043 5.1 -17.5°
Sets 18:45:29 0° 351° (N) 2,957 6.0 -17.9°
